Terminal Aerodrome Forecast
Issued by NWS

Home | Current Version | Previous Version | Text Only | Print | Product List | Glossary On
Versions: 1 2 3 4 5 6 7 8 9 10 11 12 13 14 15 16 17 18 19 20 21
175
FTUS43 KMQT 252338
TAFSAW
TAF
KSAW 252338Z 2600/2624 07004KT P6SM BKN090
     FM260200 11006KT P6SM OVC070
     FM260400 12008KT 6SM BR VCSH OVC040
     FM260500 13009KT 5SM -SHRA BR OVC020
     FM260700 15011KT 4SM -SHRA BR OVC003
     FM260800 17010KT 4SM BR OVC003
     FM261400 23007KT P6SM VCSH BKN015
     FM261700 23007KT P6SM SCT045
     FM262300 00000KT P6SM SCT060=

USA.gov is the U.S. government's official web portal to all federal, state and local government web resources and services.